sat.trackr.live / text

‹ back to catalog

STARLINK-30859

NORAD 58371 · 2023-177W

PAYLOAD ACTIVE UNKNOWN

§ Identity

Operator
Country
US
Launch date
2023-11-18
Launch site
AFETR
Launch vehicle
Mass (kg)
RCS (m²)

Purposes: comms

External: N2YO · Heavens-Above · Gunter

§ Orbital elements

Epoch: 2026-09-20T20:54:46.001664Z

Period
94.27 min
Inclination
43.0028°
Eccentricity
0.0001319
Mean motion
15.27577774 rev/d
Perigee alt
482.2 km
Apogee alt
484.0 km
Semi-major
6,861.2 km
B*
2.2964e-5
RAAN
328.6560°
Arg perigee
277.5293°
Mean anomaly
82.5409°
Rev number
15,808

§ Raw data

STARLINK-308591 58371U 23177W   26263.87136576  .00000370  00000+0  22964-4 0  99922 58371  43.0028 328.6560 0001319 277.5293  82.5409 15.27577774158084

JSON: /api/v1/satellites/58371 · /tle

For live sub-satellite position, see the globe view (requires WebGL).

§ Visibility from observer

Set your observer location to see the next 7 days of passes ≥ 10°. The values pass through the URL so the page stays shareable.

No JS? Fill the form by hand. The geolocation button needs JavaScript.